DELTA 1 DEB, 10836

Orbit data source: Space-Track

DELTA 1 DEB, 10836 is space debris in SSO originally from a launch on Thu, 29 Jul 1976 UTC launched from the Air Force Western Test Range (AFWTR). Debris objects in space refer to the collection of defunct objects orbiting the Earth. Examples of debris include non-operational satellites, rocket bodies, and fragments generated from explosions, collisions, or faulty payload assembly.

Loading next visibility...
Identifier
10836, 1976-077CG
Orbit
SSO
Country
Flag of USUS
Related business
Manufacturer
Unknown
Mission
Spacecraft
Bus & Motor
Unknown
Mass
Unknown
Launch date (UTC)
1976-07-29 (50 years ago)
Launch vehicle
Unknown
Launch site
Air Force Western Test Range (AFWTR)
Object type
Payload
Rocket body
Debris
Shape & HBR
Unknown shape, 0.1 m
Radar Cross Section
Medium (>0.1 m² and <1 m²)

Expand to show TLE details & history
Last TLE update: 3 days ago

TLE from 3 days ago
0 DELTA 1 DEB
1 10836U 76077CG  26171.25441899 -.00000101  00000-0 -64207-3 0  9990
2 10836 102.1056 285.0703 0181120  39.3432 350.5453 12.07731380553995
Epoch: 2026-06-20T06:06Z
TLE epoch observation values (Epoch: 2026-06-20T06:06:21.800Z)
Latitude
28.86552°
Longitude
-81.74888°
Altitude
1,506.342 km
Speed
7.177 km/s
True Right ascension
18h 33m 15s
True Declination
28° 44' 03"
Sunlit
Object was in full shadow at epoch
Visualization orbit readout
Latitude
Unknown
Longitude
Unknown
Altitude
Unknown
Speed
Unknown
Apparent Right ascension
Unknown
Apparent Declination
Unknown
Sunlit
N/A
Visualization observer readout
Local Sidereal Time
13:17:40
Azimuth
Unknown
Elevation
Unknown
Doppler factor
Unknown
Orbital elements
Apogee altitude
1,789.35 km
Perigee altitude
1,498.754 km
Semi-major axis
8,022.189 km
Eccentricity
0.01811
Inclination
102.1056°
RAAN
285.0703°
Arg. of periapsis
39.3432°
True anomaly
350.19659°
Mean anomaly
350.5453°
Eccentric anomaly
350.37173°
Mean motion
3.02067 °/min
Orbital period
119.18 mins
BSTAR
-0.00064207
Loading maneuver chart data...
Computing Atmospheric mass density...
Loading historical data...
Loading historical data...
Loading historical data...
Loading historical data...
Loading historical data...
Loading historical data...
Loading historical data...

Documentation

Showing up to 5 results
|